IK2YOU-3 Weather Reports


time (UTC)temp
C
wind
direction
speed
KPH
gust
KPH
rain 1hr
cm
rain 24hr
cm
rain mn
cm
humidity
%
barometer
mb
20260507204847 17 236 3.2 8.0 0.00 0.00 0.00 75 1011.3
20260507204615 17 236 3.2 8.0 0.00 0.00 0.00 75 1011.3
20260507203404 17 234 0.0 3.2 0.00 0.00 0.00 75 1011.1
20260507202404 17 234 3.2 6.4 0.00 0.00 0.00 75 1011.2
20260507201417 17 198 0.0 4.8 0.00 0.00 0.00 74 1011.1
20260507200404 17 195 0.0 0.0 0.00 0.00 0.00 74 1010.9
20260507195359 17 195 0.0 0.0 0.00 0.00 0.00 72 1010.7
20260507194400 18 195 0.0 0.0 0.00 0.00 0.00 69 1010.7
20260507193401 18 195 0.0 0.0 0.00 0.00 0.00 68 1010.5
20260507192401 18 195 0.0 0.0 0.00 0.00 0.00 66 1010.4
20260507191847 19 195 0.0 0.0 0.00 0.00 0.00 66 1010.2
20260507191613 19 195 0.0 0.0 0.00 0.00 0.00 66 1010.2
20260507190401 19 195 0.0 0.0 0.00 0.00 0.00 64 1010.1
20260507185855 20 195 0.0 0.0 0.00 0.00 0.00 63 1010.0
20260507185615 20 195 0.0 0.0 0.00 0.00 0.00 63 1010.0
20260507184401 20 195 1.6 4.8 0.00 0.00 0.00 62 1009.9
20260507183401 20 195 1.6 8.0 0.00 0.00 0.00 61 1009.9
20260507182402 20 190 3.2 8.0 0.00 0.00 0.00 59 1009.9
20260507181849 21 192 3.2 8.0 0.00 0.00 0.00 57 1009.8
20260507181614 21 192 3.2 8.0 0.00 0.00 0.00 57 1009.8
20260507180401 21 186 3.2 6.4 0.00 0.00 0.00 56 1009.7
20260507175401 21 216 1.6 6.4 0.00 0.00 0.00 54 1009.4
20260507174401 21 186 1.6 6.4 0.00 0.00 0.00 53 1009.2
20260507173404 22 285 1.6 4.8 0.00 0.00 0.00 49 1009.1
20260507172401 23 170 1.6 6.4 0.00 0.00 0.00 46 1009.1
20260507171843 23 228 3.2 9.7 0.00 0.00 0.00 45 1009.2
20260507171615 23 228 3.2 9.7 0.00 0.00 0.00 45 1009.2
20260507170403 23 196 3.2 9.7 0.00 0.00 0.00 46 1009.1
20260507165401 23 222 1.6 8.0 0.00 0.00 0.00 47 1009.1
20260507164838 23 173 3.2 6.4 0.00 0.00 0.00 47 1009.1
20260507164612 23 173 3.2 6.4 0.00 0.00 0.00 47 1009.1
20260507163837 23 238 3.2 6.4 0.00 0.00 0.00 47 1009.1
20260507163613 23 238 3.2 6.4 0.00 0.00 0.00 47 1009.1
20260507162402 23 185 4.8 9.7 0.00 0.00 0.00 48 1009.1
20260507161403 23 219 1.6 8.0 0.00 0.00 0.00 48 1009.0
20260507160401 23 308 3.2 12.9 0.00 0.00 0.00 49 1009.0
20260507155617 23 234 4.8 14.5 0.00 0.00 0.00 46 1009.1
20260507154844 22 285 3.2 12.9 0.00 0.00 0.00 51 1009.0
20260507154613 22 285 3.2 12.9 0.00 0.00 0.00 51 1009.0
20260507153401 23 278 4.8 11.3 0.00 0.00 0.00 51 1009.1
20260507152401 23 214 4.8 12.9 0.00 0.00 0.00 53 1009.2
20260507151403 22 189 3.2 12.9 0.00 0.00 0.00 52 1009.2
20260507150403 22 233 4.8 12.9 0.00 0.00 0.00 53 1009.2
20260507145613 22 275 4.8 12.9 0.00 0.00 0.00 54 1009.3
20260507144402 22 240 4.8 17.7 0.00 0.00 0.00 54 1009.3
20260507143359 22 294 3.2 11.3 0.00 0.00 0.00 53 1009.4
20260507142841 23 163 4.8 11.3 0.00 0.00 0.00 53 1009.5
20260507142610 23 163 4.8 11.3 0.00 0.00 0.00 53 1009.5
20260507141359 23 209 6.4 11.3 0.00 0.00 0.00 54 1009.4
20260507140846 23 244 6.4 16.1 0.00 0.00 0.00 52 1009.4
20260507140612 23 244 6.4 16.1 0.00 0.00 0.00 52 1009.4
20260507135401 22 181 4.8 12.9 0.00 0.00 0.00 53 1009.7
20260507134401 22 207 4.8 17.7 0.00 0.00 0.00 51 1009.8
20260507133400 22 182 4.8 17.7 0.00 0.00 0.00 53 1009.9
20260507132359 22 221 8.0 19.3 0.00 0.00 0.00 54 1010.0
20260507131357 22 219 3.2 14.5 0.00 0.00 0.00 56 1010.1
20260507130357 21 282 4.8 12.9 0.00 0.00 0.00 55 1010.1
20260507125355 22 213 9.7 17.7 0.00 0.00 0.00 53 1010.0
20260507124355 21 227 4.8 17.7 0.00 0.00 0.00 54 1010.1
20260507123836 22 209 4.8 16.1 0.00 0.00 0.00 54 1010.3
20260507123606 22 209 4.8 16.1 0.00 0.00 0.00 54 1010.3
20260507122839 21 229 4.8 14.5 0.00 0.00 0.00 54 1010.3
20260507122607 21 229 4.8 14.5 0.00 0.00 0.00 54 1010.3
20260507121353 21 251 4.8 16.1 0.00 0.00 0.00 55 1010.5
20260507120354 21 278 4.8 14.5 0.00 0.00 0.00 57 1010.5
20260507115354 21 346 6.4 14.5 0.00 0.00 0.00 55 1010.6
20260507114831 21 279 6.4 17.7 0.00 0.00 0.00 55 1010.5
20260507114605 21 279 6.4 17.7 0.00 0.00 0.00 55 1010.5
20260507113352 22 224 4.8 12.9 0.00 0.00 0.00 55 1010.7
20260507112351 21 306 4.8 14.5 0.00 0.00 0.00 55 1010.8
20260507111353 21 215 6.4 14.5 0.00 0.00 0.00 61 1010.9
20260507110850 20 196 6.4 14.5 0.00 0.00 0.00 59 1010.9
20260507110604 20 196 6.4 14.5 0.00 0.00 0.00 59 1010.9
20260507105350 20 230 6.4 12.9 0.00 0.00 0.00 61 1010.9
20260507104826 20 232 4.8 16.1 0.00 0.00 0.00 61 1011.0
20260507104601 20 232 4.8 16.1 0.00 0.00 0.00 61 1011.0
20260507103350 20 329 4.8 14.5 0.00 0.00 0.00 63 1011.1
20260507102349 20 236 4.8 12.9 0.00 0.00 0.00 59 1011.1
20260507101349 19 227 4.8 12.9 0.00 0.00 0.00 64 1011.3
20260507100349 19 306 3.2 11.3 0.00 0.00 0.00 63 1011.2
20260507095349 20 144 3.2 9.7 0.00 0.00 0.00 62 1011.3
20260507094601 19 281 3.2 9.7 0.00 0.00 0.00 64 1011.3
20260507093349 19 212 1.6 8.0 0.00 0.00 0.00 67 1011.3
20260507092350 18 314 3.2 9.7 0.00 0.00 0.00 66 1011.3
20260507091349 18 263 1.6 6.4 0.00 0.00 0.00 72 1011.3
20260507090832 18 168 3.2 8.0 0.00 0.00 0.00 72 1011.2
20260507090600 18 168 3.2 8.0 0.00 0.00 0.00 72 1011.2
20260507085349 17 183 1.6 12.9 0.00 0.00 0.00 78 1011.2
20260507084349 17 302 1.6 6.4 0.00 0.00 0.00 77 1011.3
20260507083828 15 313 1.6 6.4 0.00 0.00 0.00 82 1011.2
20260507083603 15 313 1.6 6.4 0.00 0.00 0.00 82 1011.2
20260507082349 14 246 1.6 4.8 0.00 0.00 0.00 84 1011.2
20260507081349 15 246 1.6 4.8 0.00 0.00 0.00 84 1011.2
20260507080349 15 248 1.6 4.8 0.00 0.00 0.00 83 1011.3
20260507075349 15 188 0.0 3.2 0.00 0.00 0.00 83 1011.2
20260507074349 15 317 1.6 6.4 0.00 0.00 0.00 82 1011.0
20260507073826 15 292 1.6 6.4 0.00 0.00 0.00 82 1010.9
20260507073604 15 292 1.6 6.4 0.00 0.00 0.00 82 1010.9
20260507072349 15 222 0.0 3.2 0.00 0.00 0.00 82 1010.8
20260507071358 15 222 0.0 3.2 0.00 0.00 0.00 82 1010.7
20260507070348 15 222 1.6 4.8 0.00 0.00 0.00 81 1010.7
20260507065350 15 242 1.6 6.4 0.00 0.00 0.00 82 1010.8
20260507064828 15 92 0.0 1.6 0.00 0.00 0.00 79 1010.7
20260507064603 15 92 0.0 1.6 0.00 0.00 0.00 79 1010.7
20260507063349 15 92 1.6 4.8 0.00 0.00 0.00 79 1010.5
20260507062350 15 94 0.0 4.8 0.00 0.00 0.00 82 1010.3
20260507061349 14 94 1.6 4.8 0.00 0.00 0.00 83 1010.3
20260507060827 13 94 0.0 3.2 0.00 0.00 0.00 83 1010.2
20260507060602 13 94 0.0 3.2 0.00 0.00 0.00 83 1010.2
20260507055349 13 95 1.6 4.8 0.00 0.00 0.00 84 1010.2
20260507054351 13 328 0.0 3.2 0.00 0.00 0.00 84 1010.1
20260507053349 13 321 0.0 1.6 0.00 0.00 0.00 85 1010.1
20260507052349 13 321 0.0 3.2 0.00 0.00 0.00 85 1010.0
20260507051350 13 18 0.0 3.2 0.00 0.00 0.00 86 1009.8
20260507050349 13 18 0.0 1.6 0.00 0.00 0.00 86 1009.7
20260507045348 13 18 1.6 4.8 0.00 0.00 0.00 86 1009.5
20260507044349 12 18 0.0 0.0 0.00 0.00 0.00 85 1009.5
20260507043349 12 18 1.6 4.8 0.00 0.00 0.00 85 1009.3
20260507042349 12 18 3.2 4.8 0.00 0.00 0.00 85 1009.3
20260507041348 12 19 0.0 3.2 0.00 0.00 0.00 85 1009.2
20260507040349 12 19 0.0 3.2 0.00 0.00 0.00 85 1009.1
20260507035349 12 19 1.6 4.8 0.00 0.00 0.00 85 1009.0
20260507034345 12 5 1.6 4.8 0.00 0.00 0.00 85 1009.0
20260507033342 12 5 0.0 4.8 0.00 0.00 0.00 85 1009.0
20260507032343 12 348 1.6 4.8 0.00 0.00 0.00 85 1008.9
20260507031340 12 321 0.0 3.2 0.00 0.00 0.00 84 1008.9
20260507030340 12 320 0.0 3.2 0.00 0.00 0.00 84 1008.9
20260507025340 12 320 1.6 4.8 0.00 0.00 0.00 84 1009.0
20260507024817 13 319 1.6 4.8 0.00 0.00 0.00 84 1008.9
20260507024556 13 319 1.6 4.8 0.00 0.00 0.00 84 1008.9
20260507023339 13 317 1.6 6.4 0.00 0.00 0.00 84 1008.9
20260507022333 13 17 3.2 8.0 0.00 0.00 0.00 84 1008.7
20260507021334 13 9 3.2 8.0 0.00 0.00 0.00 85 1008.6
20260507020814 13 355 3.2 6.4 0.00 0.00 0.00 85 1008.6
20260507020544 13 355 3.2 6.4 0.00 0.00 0.00 85 1008.6
20260507015811 13 324 4.8 9.7 0.00 0.00 0.00 85 1008.6
20260507015545 13 324 4.8 9.7 0.00 0.00 0.00 85 1008.6
20260507014333 13 340 4.8 8.0 0.00 0.00 0.00 85 1008.5
20260507013334 13 5 3.2 6.4 0.00 0.00 0.00 85 1008.6
20260507012333 13 340 3.2 8.0 0.00 0.00 0.00 86 1008.6
20260507011333 13 327 4.8 8.0 0.00 0.00 0.00 86 1008.6
20260507010545 13 334 4.8 0.0 0.00 0.00 0.00 86 1008.7
20260507005410 13 11 3.2 6.4 0.00 0.58 0.00 86 1008.7
20260507004409 13 336 3.2 8.0 0.00 0.58 0.00 86 1008.9
20260507003409 13 308 1.6 3.2 0.00 0.58 0.00 85 1008.8
20260507002846 13 298 3.2 6.4 0.00 0.58 0.00 85 1008.8
20260507002623 13 298 3.2 6.4 0.00 0.58 0.00 85 1008.8
20260507001618 13 286 1.6 3.2 0.00 0.58 0.00 85 1008.7
20260507000420 13 286 0.0 3.2 0.00 0.58 0.00 85 1008.7
20260506235406 13 291 3.2 6.4 0.00 0.58 0.00 85 1008.7
20260506234407 13 319 3.2 6.4 0.00 0.58 0.00 86 1008.7
20260506233406 13 259 1.6 4.8 0.00 0.58 0.00 86 1008.6
20260506232406 13 12 1.6 4.8 0.00 0.58 0.00 85 1008.5
20260506231408 13 13 1.6 6.4 0.00 0.58 0.00 85 1008.4
20260506230406 13 26 1.6 4.8 0.00 0.58 0.00 84 1008.3
20260506225406 13 27 1.6 4.8 0.00 0.58 0.00 83 1008.2
20260506224407 13 27 1.6 8.0 0.00 0.58 0.00 82 1008.1
20260506223407 13 49 6.4 12.9 0.00 0.58 0.00 82 1008.1
20260506222406 13 28 6.4 14.5 0.00 0.58 0.00 83 1008.1
20260506221406 13 58 3.2 8.0 0.00 0.58 0.00 85 1008.1
20260506220406 13 299 0.0 3.2 0.00 0.58 0.00 85 1008.2
20260506215403 13 299 0.0 3.2 0.00 0.58 0.58 85 1008.1
20260506214403 13 299 0.0 4.8 0.00 0.58 0.58 84 1008.2
20260506213404 14 299 3.2 8.0 0.00 0.58 0.58 84 1008.0
20260506212404 14 34 3.2 6.4 0.00 0.58 0.58 84 1008.0
20260506211403 14 44 3.2 6.4 0.00 0.58 0.58 84 1007.9
20260506210403 14 43 1.6 4.8 0.00 0.58 0.58 84 1007.9
20260506205403 14 46 3.2 8.0 0.00 0.58 0.58 84 1007.9